Casper, WY

3:15 PM MDT on May 28, 2017 (GMT -0600)
Natrona County International

Weather History for KCPR - November, 2011

Change the Weather History Date:

Sunday, November 27, 2011

  Actual Average Record
Temperature  
Mean Temperature 36 °F 28 °F  
Max Temperature 45 °F 38 °F 64 °F (1998)
Min Temperature 27 °F 17 °F -11 °F (1952)
Degree Days  
Heating Degree Days 29 37  
Month to date heating degree days 875 843  
Since 1 July heating degree days 1548 1742  
Cooling Degree Days 0 0  
Month to date cooling degree days 0 0  
Year to date cooling degree days 519 422  
Moisture  
Dew Point 15 °F    
Average Humidity 44    
Maximum Humidity 55    
Minimum Humidity 33    
Precipitation  
Precipitation 0.00 in 0.02 in 0.30 in (1942)
Month to date precipitation 1.12 0.70  
Year to date precipitation 12.46 11.97  
Snow  
Snow 0.00 in 0.40 in - ()
Month to date snowfall 13.1 9.3  
Since 1 July snowfall 14.1 18.5  
Since 1 September snowfall 14.1 18.5  
Snow Depth 0.00 in    
Sea Level Pressure  
Sea Level Pressure 30.34 in    
Wind  
Wind Speed 22 mph (SW)    
Max Wind Speed 29 mph    
Max Gust Speed 44 mph    
Visibility 10 miles    
Events      
T = Trace of Precipitation, MM = Missing Value Source: NWS Daily Summary

Daily Weather History Graph

Daily Weather History Graph

Search for Another Location

Airport or City:

Trip Planner

Search our weather history database for the weather conditions in past years. The results will help you decide how hot, cold, wet, or windy it might be!

Date:

Astronomy

Nov. 27, 2011 Rise Set
Actual Time 7:12 AM MST 4:34 PM MST
Civil Twilight 6:40 AM MST 5:05 PM MST
Nautical Twilight 6:05 AM MST 5:40 PM MST
Astronomical Twilight 5:31 AM MST 6:14 PM MST
Moon 9:40 AM MST (11/27) 7:15 PM MST (11/27)
Length of Visible Light 10h 24m
Length of Day
9h 21m
Waxing Crescent, 9% of the Moon is Illuminated
Nov 27
Waxing Crescent
Dec 2
First Quarter
Dec 10
Full
Dec 17
Last Quarter
Dec 24
New

Hourly Weather History & Observations

Time (MST) Temp. Windchill Dew Point Humidity Pressure Visibility Wind Dir Wind Speed Gust Speed Precip Events Conditions
12:53 AM 27.0 °F 14.3 °F 12.0 °F 53% 30.53 in 10.0 mi SW 17.3 mph 24.2 mph N/A   Clear
1:53 AM 28.0 °F 14.6 °F 10.9 °F 49% 30.52 in 10.0 mi SW 20.7 mph 29.9 mph N/A   Clear
2:53 AM 28.4 °F 15.4 °F 10.4 °F 47% 30.41 in 10.0 mi SW 19.6 mph 25.3 mph N/A   Clear
3:53 AM 28.0 °F 13.6 °F 10.0 °F 47% 30.49 in 10.0 mi SW 24.2 mph 31.1 mph N/A   Clear
4:53 AM 27.0 °F 13.9 °F 10.0 °F 49% 30.49 in 10.0 mi SW 18.4 mph - N/A   Clear
5:53 AM 27.0 °F 12.8 °F 10.0 °F 49% 30.48 in 10.0 mi SW 21.9 mph - N/A   Clear
6:53 AM 27.0 °F 14.3 °F 10.0 °F 49% 30.48 in 10.0 mi SW 17.3 mph 27.6 mph N/A   Clear
7:53 AM 30.0 °F 16.3 °F 10.9 °F 45% 30.45 in 10.0 mi SSW 24.2 mph 32.2 mph N/A   Clear
8:53 AM 32.0 °F 18.1 °F 10.9 °F 42% 30.44 in 10.0 mi SSW 27.6 mph 38.0 mph N/A   Clear
9:53 AM 35.1 °F 22.5 °F 14.0 °F 42% 30.43 in 10.0 mi SSW 26.5 mph 35.7 mph N/A   Clear
10:53 AM 37.9 °F 26.1 °F 15.1 °F 39% 30.39 in 10.0 mi SSW 27.6 mph 35.7 mph N/A   Clear
11:53 AM 39.0 °F 27.4 °F 15.1 °F 38% 30.36 in 10.0 mi SSW 28.8 mph 40.3 mph N/A   Clear
12:53 PM 42.1 °F 31.7 °F 17.1 °F 37% 30.32 in 10.0 mi SW 27.6 mph 39.1 mph N/A   Clear
1:53 PM 44.1 °F 34.8 °F 18.0 °F 35% 30.28 in 10.0 mi SSW 25.3 mph 34.5 mph N/A   Clear
2:53 PM 45.0 °F 37.1 °F 19.0 °F 36% 30.26 in 10.0 mi SW 19.6 mph 29.9 mph N/A   Clear
3:53 PM 42.1 °F 33.9 °F 19.0 °F 40% 30.26 in 10.0 mi SW 17.3 mph 26.5 mph N/A   Clear
4:53 PM 41.0 °F 31.4 °F 19.0 °F 41% 30.26 in 10.0 mi SW 21.9 mph 33.4 mph N/A   Clear
5:53 PM 41.0 °F 30.7 °F 19.0 °F 41% 30.26 in 10.0 mi SSW 25.3 mph 32.2 mph N/A   Clear
6:53 PM 39.9 °F 29.5 °F 19.0 °F 43% 30.24 in 10.0 mi SW 24.2 mph 33.4 mph N/A   Clear
7:53 PM 42.1 °F 34.9 °F 18.0 °F 38% 30.22 in 10.0 mi SW 13.8 mph 25.3 mph N/A   Clear
8:53 PM 42.1 °F 34.9 °F 18.0 °F 38% 30.21 in 10.0 mi SW 13.8 mph 21.9 mph N/A   Clear
9:53 PM 42.1 °F 32.1 °F 18.0 °F 38% 30.17 in 10.0 mi SW 25.3 mph 31.1 mph N/A   Clear
10:53 PM 42.1 °F 34.2 °F 17.1 °F 37% 30.16 in 10.0 mi SW 16.1 mph 25.3 mph N/A   Clear
11:53 PM 42.1 °F 33.3 °F 17.1 °F 37% 30.14 in 10.0 mi SW 19.6 mph 27.6 mph N/A   Clear